Погода в Кувандыке

Россия / Оренбургская область     51°28′42″N   57°21′40″E
темп.,
°C
ветер,
м/с
пор.,
м/с
влажн.,
%
обл.,
%
осадки,
мм/ч
давл.,
гПа
погр.,
м
31 июля, сб
сб3123:00+24юз383785 0.1 1009148
02:00+21ююз114686 0.0 100911
05:00+19ююз115445 0.0 101011
08:00+25ююз244447 0.0 1010237
11:00+31з463150 0.4 10101102
14:00+27зюз4942100 0.1 1011542
17:00+33з682144 0.1 10102542
20:00+30юз510285 0.0 1009405
1 августа, вс
вс123:00+23с014596 0.0 101111
02:00+24ююз114188 0.0 101211
05:00+21з11505 0.0 101211
08:00+26з233843 0.0 1013243
11:00+31з473363 0.0 10131514
14:00+34зсз6826100 0.0 10123670
17:00+29з374277 0.4 1012538
20:00+26юз23441 0.0 101392
2 августа, пн
пн223:00+22ссв22443 0.0 101416
02:00+20всв22505 0.0 101511
05:00+18в11565 0.0 101611
08:00+25в01390 0.0 1016147
11:00+31зюз33240 0.0 10162437
14:00+34сз44191 0.0 10143311
17:00+35сз44175 0.0 10133669
20:00+31ссв112279 0.0 101312
3 августа, вт
вт323:00+26всв22298 0.0 101416
02:00+23всв33391 0.0 101430
05:00+21всв22454 0.0 101511
08:00+26св11335 0.0 1016152
11:00+33зюз23205 0.0 10151257
14:00+36зсз341792 0.0 10133988
17:00+37св231555 0.0 10124000
20:00+27зюз81340100 0.1 1015358
4 августа, ср
ср423:00+25св3336100 0.1 101435
02:00+23в1141100 0.0 101411
05:00+23юв1141100 0.0 101411
08:00+28юв233299 0.0 1014166
11:00+35ююз332045 0.0 10131177
14:00+37ююз331567 0.0 10123569
17:00+38ююз551380 0.0 10104028
20:00+30в71228100 0.0 1010384